STELLA

Last updated on Fri Oct 11 2024 00:03:25 GMT+0000 (Coordinated Universal Time)

1 22824U 93061B 24284.61754098 .00000029 00000+0 30348-4 0 9999 2 22824 98.8650 332.6259 0005689 215.7553 268.0140 14.27437062617092
UTC large
Height (km)
Speed (km/s)
/
Latitude / Longitude
Inclination (degrees)
Orbital Period (minutes)
Azimuth
Elevation
Range (km)
Doppler Factor

Next 0 passes for location: London (51.5072 / 0.1276)

Sorry there are no passes over London.